Year,Month,Day,Hour,Minute,Value (Times are PST for temperature in C)
2008,05,18,00,00,14.40
2008,05,18,00,01,14.40
2008,05,18,00,02,14.40
2008,05,18,00,03,14.40
2008,05,18,00,04,14.40
2008,05,18,00,05,14.40
2008,05,18,00,06,14.30
2008,05,18,00,07,14.30
2008,05,18,00,08,14.30
2008,05,18,00,09,14.30
2008,05,18,00,10,14.30
2008,05,18,00,11,14.30
2008,05,18,00,12,14.30
2008,05,18,00,13,14.30
2008,05,18,00,14,14.20
2008,05,18,00,15,14.20
2008,05,18,00,16,14.20
2008,05,18,00,17,14.20
2008,05,18,00,18,14.20
2008,05,18,00,19,14.20
2008,05,18,00,20,14.20
2008,05,18,00,21,14.20
2008,05,18,00,22,14.20
2008,05,18,00,23,14.20
2008,05,18,00,24,14.20
2008,05,18,00,25,14.20
2008,05,18,00,26,14.10
2008,05,18,00,27,14.10
2008,05,18,00,28,14.10
2008,05,18,00,29,14.10
2008,05,18,00,30,14.10
2008,05,18,00,31,14.10
2008,05,18,00,32,14.10
2008,05,18,00,33,14.10
2008,05,18,00,34,14.10
2008,05,18,00,35,14.10
2008,05,18,00,36,14.10
2008,05,18,00,37,14.10
2008,05,18,00,38,14.10
2008,05,18,00,39,14.10
2008,05,18,00,40,14.10
2008,05,18,00,41,14.10
2008,05,18,00,42,14.10
2008,05,18,00,43,14.10
2008,05,18,00,44,14.10
2008,05,18,00,45,14.10
2008,05,18,00,46,14.10
2008,05,18,00,47,14.10
2008,05,18,00,48,14.10
2008,05,18,00,49,14.10
2008,05,18,00,50,14.10
2008,05,18,00,51,14.10
2008,05,18,00,52,14.20
2008,05,18,00,53,14.20
2008,05,18,00,54,14.10
2008,05,18,00,55,14.10
2008,05,18,00,56,14.10
2008,05,18,00,57,14.10
2008,05,18,00,58,14.10
2008,05,18,00,59,14.00
2008,05,18,01,00,14.00
2008,05,18,01,01,13.90
2008,05,18,01,02,13.90
2008,05,18,01,03,13.90
2008,05,18,01,04,13.90
2008,05,18,01,05,13.80
2008,05,18,01,06,13.80
2008,05,18,01,07,13.80
2008,05,18,01,08,13.80
2008,05,18,01,09,13.80
2008,05,18,01,10,13.80
2008,05,18,01,11,13.80
2008,05,18,01,12,13.80
2008,05,18,01,13,13.80
2008,05,18,01,14,13.80
2008,05,18,01,15,13.80
2008,05,18,01,16,13.80
2008,05,18,01,17,13.70
2008,05,18,01,18,13.70
2008,05,18,01,19,13.70
2008,05,18,01,20,13.70
2008,05,18,01,21,13.70
2008,05,18,01,22,13.70
2008,05,18,01,23,13.70
2008,05,18,01,24,13.60
2008,05,18,01,25,13.60
2008,05,18,01,26,13.60
2008,05,18,01,27,13.60
2008,05,18,01,28,13.50
2008,05,18,01,29,13.50
2008,05,18,01,30,13.40
2008,05,18,01,31,13.40
2008,05,18,01,32,13.40
2008,05,18,01,33,13.40
2008,05,18,01,34,13.30
2008,05,18,01,35,13.30
2008,05,18,01,36,13.30
2008,05,18,01,37,13.30
2008,05,18,01,38,13.20
2008,05,18,01,39,13.20
2008,05,18,01,40,13.20
2008,05,18,01,41,13.20
2008,05,18,01,42,13.20
2008,05,18,01,43,13.20
2008,05,18,01,44,13.30
2008,05,18,01,45,13.20
2008,05,18,01,46,13.30
2008,05,18,01,47,13.30
2008,05,18,01,48,13.30
2008,05,18,01,49,13.30
2008,05,18,01,50,13.30
2008,05,18,01,51,13.30
2008,05,18,01,52,13.30
2008,05,18,01,53,13.30
2008,05,18,01,54,13.30
2008,05,18,01,55,13.30
2008,05,18,01,56,13.30
2008,05,18,01,57,13.30
2008,05,18,01,58,13.30
2008,05,18,01,59,13.30
2008,05,18,02,00,13.30
2008,05,18,02,01,13.30
2008,05,18,02,02,13.30
2008,05,18,02,03,13.30
2008,05,18,02,04,13.30
2008,05,18,02,05,13.30
2008,05,18,02,06,13.30
2008,05,18,02,07,13.30
2008,05,18,02,08,13.20
2008,05,18,02,09,13.30
2008,05,18,02,10,13.30
2008,05,18,02,11,13.20
2008,05,18,02,12,13.20
2008,05,18,02,13,13.20
2008,05,18,02,14,13.10
2008,05,18,02,15,13.10
2008,05,18,02,16,13.00
2008,05,18,02,17,13.00
2008,05,18,02,18,12.90
2008,05,18,02,19,12.80
2008,05,18,02,20,12.80
2008,05,18,02,21,12.70
2008,05,18,02,22,12.70
2008,05,18,02,23,12.60
2008,05,18,02,24,12.60
2008,05,18,02,25,12.60
2008,05,18,02,26,12.50
2008,05,18,02,27,12.50
2008,05,18,02,28,12.50
2008,05,18,02,29,12.50
2008,05,18,02,30,12.50
2008,05,18,02,31,12.50
2008,05,18,02,32,12.50
2008,05,18,02,33,12.50
2008,05,18,02,34,12.40
2008,05,18,02,35,12.40
2008,05,18,02,36,12.30
2008,05,18,02,37,12.20
2008,05,18,02,38,12.20
2008,05,18,02,39,12.10
2008,05,18,02,40,12.10
2008,05,18,02,41,12.10
2008,05,18,02,42,12.10
2008,05,18,02,43,12.20
2008,05,18,02,44,12.20
2008,05,18,02,45,12.30
2008,05,18,02,46,12.30
2008,05,18,02,47,12.40
2008,05,18,02,48,12.50
2008,05,18,02,49,12.60
2008,05,18,02,50,12.60
2008,05,18,02,51,12.60
2008,05,18,02,52,12.60
2008,05,18,02,53,12.60
2008,05,18,02,54,12.60
2008,05,18,02,55,12.50
2008,05,18,02,56,12.50
2008,05,18,02,57,12.40
2008,05,18,02,58,12.40
2008,05,18,02,59,12.40
2008,05,18,03,00,12.40
2008,05,18,03,01,12.40
2008,05,18,03,02,12.30
2008,05,18,03,03,12.30
2008,05,18,03,04,12.30
2008,05,18,03,05,12.20
2008,05,18,03,06,12.20
2008,05,18,03,07,12.20
2008,05,18,03,08,12.20
2008,05,18,03,09,12.20
2008,05,18,03,10,12.20
2008,05,18,03,11,12.10
2008,05,18,03,12,12.10
2008,05,18,03,13,12.10
2008,05,18,03,14,12.10
2008,05,18,03,15,12.10
2008,05,18,03,16,12.10
2008,05,18,03,17,12.10
2008,05,18,03,18,12.10
2008,05,18,03,19,12.00
2008,05,18,03,20,12.00
2008,05,18,03,21,12.00
2008,05,18,03,22,11.90
2008,05,18,03,23,11.90
2008,05,18,03,24,11.90
2008,05,18,03,25,11.90
2008,05,18,03,26,11.90
2008,05,18,03,27,12.00
2008,05,18,03,28,12.00
2008,05,18,03,29,12.00
2008,05,18,03,30,12.10
2008,05,18,03,31,12.10
2008,05,18,03,32,12.10
2008,05,18,03,33,12.00
2008,05,18,03,34,12.00
2008,05,18,03,35,11.90
2008,05,18,03,36,11.90
2008,05,18,03,37,11.80
2008,05,18,03,38,11.70
2008,05,18,03,39,11.60
2008,05,18,03,40,11.60
2008,05,18,03,41,11.60
2008,05,18,03,42,11.60
2008,05,18,03,43,11.50
2008,05,18,03,44,11.50
2008,05,18,03,45,11.50
2008,05,18,03,46,11.50
2008,05,18,03,47,11.50
2008,05,18,03,48,11.60
2008,05,18,03,49,11.60
2008,05,18,03,50,11.60
2008,05,18,03,51,11.60
2008,05,18,03,52,11.60
2008,05,18,03,53,11.70
2008,05,18,03,54,11.70
2008,05,18,03,55,11.80
2008,05,18,03,56,11.80
2008,05,18,03,57,11.80
2008,05,18,03,58,11.90
2008,05,18,03,59,11.90
2008,05,18,04,00,11.90
2008,05,18,04,01,11.90
2008,05,18,04,02,11.90
2008,05,18,04,03,11.80
2008,05,18,04,04,11.80
2008,05,18,04,05,11.80
2008,05,18,04,06,11.70
2008,05,18,04,07,11.70
2008,05,18,04,08,11.70
2008,05,18,04,09,11.70
2008,05,18,04,10,11.60
2008,05,18,04,11,11.60
2008,05,18,04,12,11.60
2008,05,18,04,13,11.60
2008,05,18,04,14,11.60
2008,05,18,04,15,11.70
2008,05,18,04,16,11.70
2008,05,18,04,17,11.70
2008,05,18,04,18,11.70
2008,05,18,04,19,11.70
2008,05,18,04,20,11.70
2008,05,18,04,21,11.70
2008,05,18,04,22,11.70
2008,05,18,04,23,11.70
2008,05,18,04,24,11.70
2008,05,18,04,25,11.70
2008,05,18,04,26,11.70
2008,05,18,04,27,11.70
2008,05,18,04,28,11.70
2008,05,18,04,29,11.70
2008,05,18,04,30,11.70
2008,05,18,04,31,11.70
2008,05,18,04,32,11.70
2008,05,18,04,33,11.70
2008,05,18,04,34,11.70
2008,05,18,04,35,11.80
2008,05,18,04,36,11.80
2008,05,18,04,37,11.80
2008,05,18,04,38,11.80
2008,05,18,04,39,11.80
2008,05,18,04,40,11.80
2008,05,18,04,41,11.80
2008,05,18,04,42,11.80
2008,05,18,04,43,11.80
2008,05,18,04,44,11.80
2008,05,18,04,45,11.80
2008,05,18,04,46,11.80
2008,05,18,04,47,11.80
2008,05,18,04,48,11.80
2008,05,18,04,49,11.80
2008,05,18,04,50,11.80
2008,05,18,04,51,11.80
2008,05,18,04,52,11.80
2008,05,18,04,53,11.80
2008,05,18,04,54,11.80
2008,05,18,04,55,11.70
2008,05,18,04,56,11.70
2008,05,18,04,57,11.70
2008,05,18,04,58,11.60
2008,05,18,04,59,11.60
2008,05,18,05,00,11.60
2008,05,18,05,01,11.60
2008,05,18,05,02,11.50
2008,05,18,05,03,11.50
2008,05,18,05,04,11.40
2008,05,18,05,05,11.40
2008,05,18,05,06,11.40
2008,05,18,05,07,11.40
2008,05,18,05,08,11.40
2008,05,18,05,09,11.40
2008,05,18,05,10,11.40
2008,05,18,05,11,11.40
2008,05,18,05,12,11.30
2008,05,18,05,13,11.30
2008,05,18,05,14,11.30
2008,05,18,05,15,11.30
2008,05,18,05,16,11.30
2008,05,18,05,17,11.30
2008,05,18,05,18,11.20
2008,05,18,05,19,11.20
2008,05,18,05,20,11.20
2008,05,18,05,21,11.20
2008,05,18,05,22,11.10
2008,05,18,05,23,11.10
2008,05,18,05,24,11.10
2008,05,18,05,25,11.10
2008,05,18,05,26,11.10
2008,05,18,05,27,11.10
2008,05,18,05,28,11.10
2008,05,18,05,29,11.10
2008,05,18,05,30,11.10
2008,05,18,05,31,11.10
2008,05,18,05,32,11.10
2008,05,18,05,33,11.10
2008,05,18,05,34,11.20
2008,05,18,05,35,11.20
2008,05,18,05,36,11.10
2008,05,18,05,37,11.10
2008,05,18,05,38,11.10
2008,05,18,05,39,11.10
2008,05,18,05,40,11.10
2008,05,18,05,41,11.10
2008,05,18,05,42,11.10
2008,05,18,05,43,11.10
2008,05,18,05,44,11.10
2008,05,18,05,45,11.10
2008,05,18,05,46,11.10
2008,05,18,05,47,11.10
2008,05,18,05,48,11.10
2008,05,18,05,49,11.10
2008,05,18,05,50,11.10
2008,05,18,05,51,11.20
2008,05,18,05,52,11.20
2008,05,18,05,53,11.10
2008,05,18,05,54,11.20
2008,05,18,05,55,11.20
2008,05,18,05,56,11.10
2008,05,18,05,57,11.10
2008,05,18,05,58,11.10
2008,05,18,05,59,11.10
2008,05,18,06,00,11.10
2008,05,18,06,01,11.10
2008,05,18,06,02,11.10
2008,05,18,06,03,11.10
2008,05,18,06,04,11.10
2008,05,18,06,05,11.10
2008,05,18,06,06,11.10
2008,05,18,06,07,11.10
2008,05,18,06,08,11.10
2008,05,18,06,09,11.10
2008,05,18,06,10,11.10
2008,05,18,06,11,11.10
2008,05,18,06,12,11.10
2008,05,18,06,13,11.10
2008,05,18,06,14,11.10
2008,05,18,06,15,11.00
2008,05,18,06,16,11.00
2008,05,18,06,17,11.00
2008,05,18,06,18,10.90
2008,05,18,06,19,10.90
2008,05,18,06,20,10.90
2008,05,18,06,21,10.90
2008,05,18,06,22,10.90
2008,05,18,06,23,10.90
2008,05,18,06,24,10.90
2008,05,18,06,25,10.90
2008,05,18,06,26,10.90
2008,05,18,06,27,10.80
2008,05,18,06,28,10.80
2008,05,18,06,29,10.80
2008,05,18,06,30,10.80
2008,05,18,06,31,10.80
2008,05,18,06,32,10.80
2008,05,18,06,33,10.80
2008,05,18,06,34,10.80
2008,05,18,06,35,10.70
2008,05,18,06,36,10.70
2008,05,18,06,37,10.70
2008,05,18,06,38,10.70
2008,05,18,06,39,10.70
2008,05,18,06,40,10.70
2008,05,18,06,41,10.60
2008,05,18,06,42,10.60
2008,05,18,06,43,10.60
2008,05,18,06,44,10.60
2008,05,18,06,45,10.60
2008,05,18,06,46,10.60
2008,05,18,06,47,10.60
2008,05,18,06,48,10.60
2008,05,18,06,49,10.60
2008,05,18,06,50,10.60
2008,05,18,06,51,10.60
2008,05,18,06,52,10.60
2008,05,18,06,53,10.60
2008,05,18,06,54,10.60
2008,05,18,06,55,10.70
2008,05,18,06,56,10.70
2008,05,18,06,57,10.70
2008,05,18,06,58,10.70
2008,05,18,06,59,10.70
2008,05,18,07,00,10.70
2008,05,18,07,01,10.70
2008,05,18,07,02,10.80
2008,05,18,07,03,10.80
2008,05,18,07,04,10.80
2008,05,18,07,05,10.90
2008,05,18,07,06,10.90
2008,05,18,07,07,11.00
2008,05,18,07,08,11.00
2008,05,18,07,09,11.10
2008,05,18,07,10,11.10
2008,05,18,07,11,11.20
2008,05,18,07,12,11.20
2008,05,18,07,13,11.30
2008,05,18,07,14,11.30
2008,05,18,07,15,11.40
2008,05,18,07,16,11.40
2008,05,18,07,17,11.50
2008,05,18,07,18,11.50
2008,05,18,07,19,11.60
2008,05,18,07,20,11.60
2008,05,18,07,21,11.60
2008,05,18,07,22,11.60
2008,05,18,07,23,11.60
2008,05,18,07,24,11.60
2008,05,18,07,25,11.60
2008,05,18,07,26,11.70
2008,05,18,07,27,11.70
2008,05,18,07,28,11.70
2008,05,18,07,29,11.70
2008,05,18,07,30,11.70
2008,05,18,07,31,11.70
2008,05,18,07,32,11.70
2008,05,18,07,33,11.70
2008,05,18,07,34,11.80
2008,05,18,07,35,11.80
2008,05,18,07,36,11.80
2008,05,18,07,37,11.80
2008,05,18,07,38,11.80
2008,05,18,07,39,11.90
2008,05,18,07,40,11.90
2008,05,18,07,41,11.90
2008,05,18,07,42,12.00
2008,05,18,07,43,12.00
2008,05,18,07,44,12.10
2008,05,18,07,45,12.10
2008,05,18,07,46,12.20
2008,05,18,07,47,12.20
2008,05,18,07,48,12.20
2008,05,18,07,49,12.20
2008,05,18,07,50,12.20
2008,05,18,07,51,12.20
2008,05,18,07,52,12.20
2008,05,18,07,53,12.20
2008,05,18,07,54,12.20
2008,05,18,07,55,12.20
2008,05,18,07,56,12.20
2008,05,18,07,57,12.20
2008,05,18,07,58,12.20
2008,05,18,07,59,12.20
2008,05,18,08,00,12.20
2008,05,18,08,01,12.20
2008,05,18,08,02,12.30
2008,05,18,08,03,12.30
2008,05,18,08,04,12.30
2008,05,18,08,05,12.40
2008,05,18,08,06,12.40
2008,05,18,08,07,12.40
2008,05,18,08,08,12.50
2008,05,18,08,09,12.60
2008,05,18,08,10,12.60
2008,05,18,08,11,12.70
2008,05,18,08,12,12.70
2008,05,18,08,13,12.80
2008,05,18,08,14,12.90
2008,05,18,08,15,12.90
2008,05,18,08,16,13.00
2008,05,18,08,17,13.00
2008,05,18,08,18,13.10
2008,05,18,08,19,13.20
2008,05,18,08,20,13.30
2008,05,18,08,21,13.40
2008,05,18,08,22,13.50
2008,05,18,08,23,13.50
2008,05,18,08,24,13.60
2008,05,18,08,25,13.70
2008,05,18,08,26,13.80
2008,05,18,08,27,13.80
2008,05,18,08,28,13.90
2008,05,18,08,29,14.00
2008,05,18,08,30,14.00
2008,05,18,08,31,14.00
2008,05,18,08,32,14.10
2008,05,18,08,33,14.10
2008,05,18,08,34,14.20
2008,05,18,08,35,14.20
2008,05,18,08,36,14.10
2008,05,18,08,37,14.10
2008,05,18,08,38,14.20
2008,05,18,08,39,14.20
2008,05,18,08,40,14.20
2008,05,18,08,41,14.30
2008,05,18,08,42,14.30
2008,05,18,08,43,14.40
2008,05,18,08,44,14.50
2008,05,18,08,45,14.50
2008,05,18,08,46,14.60
2008,05,18,08,47,14.70
2008,05,18,08,48,14.70
2008,05,18,08,49,14.80
2008,05,18,08,50,14.90
2008,05,18,08,51,15.00
2008,05,18,08,52,15.00
2008,05,18,08,53,15.00
2008,05,18,08,54,15.00
2008,05,18,08,55,15.00
2008,05,18,08,56,15.00
2008,05,18,08,57,15.00
2008,05,18,08,58,15.00
2008,05,18,08,59,15.00
2008,05,18,09,00,15.10
2008,05,18,09,01,15.20
2008,05,18,09,02,15.30
2008,05,18,09,03,15.30
2008,05,18,09,04,15.30
2008,05,18,09,05,15.30
2008,05,18,09,06,15.30
2008,05,18,09,07,15.30
2008,05,18,09,08,15.30
2008,05,18,09,09,15.20
2008,05,18,09,10,15.30
2008,05,18,09,11,15.20
2008,05,18,09,12,15.20
2008,05,18,09,13,15.10
2008,05,18,09,14,15.20
2008,05,18,09,15,15.20
2008,05,18,09,16,15.20
2008,05,18,09,17,15.30
2008,05,18,09,18,15.40
2008,05,18,09,19,15.50
2008,05,18,09,20,15.50
2008,05,18,09,21,15.60
2008,05,18,09,22,15.70
2008,05,18,09,23,15.80
2008,05,18,09,24,15.80
2008,05,18,09,25,15.80
2008,05,18,09,26,15.70
2008,05,18,09,27,15.60
2008,05,18,09,28,15.50
2008,05,18,09,29,15.50
2008,05,18,09,30,15.60
2008,05,18,09,31,15.60
2008,05,18,09,32,15.70
2008,05,18,09,33,15.70
2008,05,18,09,34,15.70
2008,05,18,09,35,15.80
2008,05,18,09,36,15.80
2008,05,18,09,37,15.90
2008,05,18,09,38,15.90
2008,05,18,09,39,15.90
2008,05,18,09,40,16.00
2008,05,18,09,41,16.00
2008,05,18,09,42,16.00
2008,05,18,09,43,16.10
2008,05,18,09,44,16.10
2008,05,18,09,45,16.10
2008,05,18,09,46,16.10
2008,05,18,09,47,16.10
2008,05,18,09,48,16.20
2008,05,18,09,49,16.20
2008,05,18,09,50,16.20
2008,05,18,09,51,16.20
2008,05,18,09,52,16.20
2008,05,18,09,53,16.20
2008,05,18,09,54,16.30
2008,05,18,09,55,16.30
2008,05,18,09,56,16.30
2008,05,18,09,57,16.30
2008,05,18,09,58,16.40
2008,05,18,09,59,16.50
2008,05,18,10,00,16.70
2008,05,18,10,01,16.80
2008,05,18,10,02,16.90
2008,05,18,10,03,17.10
2008,05,18,10,04,17.20
2008,05,18,10,05,17.30
2008,05,18,10,06,17.30
2008,05,18,10,07,17.30
2008,05,18,10,08,17.40
2008,05,18,10,09,17.40
2008,05,18,10,10,17.40
2008,05,18,10,11,17.40
2008,05,18,10,12,17.50
2008,05,18,10,13,17.50
2008,05,18,10,14,17.60
2008,05,18,10,15,17.70
2008,05,18,10,16,17.70
2008,05,18,10,17,17.70
2008,05,18,10,18,17.60
2008,05,18,10,19,17.50
2008,05,18,10,20,17.40
2008,05,18,10,21,17.40
2008,05,18,10,22,17.50
2008,05,18,10,23,17.60
2008,05,18,10,24,17.70
2008,05,18,10,25,17.80
2008,05,18,10,26,17.90
2008,05,18,10,27,17.90
2008,05,18,10,28,18.00
2008,05,18,10,29,18.10
2008,05,18,10,30,18.20
2008,05,18,10,31,18.30
2008,05,18,10,32,18.40
2008,05,18,10,33,18.40
2008,05,18,10,34,18.50
2008,05,18,10,35,18.60
2008,05,18,10,36,18.60
2008,05,18,10,37,18.60
2008,05,18,10,38,18.70
2008,05,18,10,39,18.80
2008,05,18,10,40,18.80
2008,05,18,10,41,18.80
2008,05,18,10,42,18.90
2008,05,18,10,43,18.90
2008,05,18,10,44,19.00
2008,05,18,10,45,19.10
2008,05,18,10,46,19.10
2008,05,18,10,47,19.20
2008,05,18,10,48,19.20
2008,05,18,10,49,19.20
2008,05,18,10,50,19.30
2008,05,18,10,51,19.30
2008,05,18,10,52,19.30
2008,05,18,10,53,19.30
2008,05,18,10,54,19.20
2008,05,18,10,55,19.20
2008,05,18,10,56,19.20
2008,05,18,10,57,19.20
2008,05,18,10,58,19.20
2008,05,18,10,59,19.20
2008,05,18,11,00,19.20
2008,05,18,11,01,19.20
2008,05,18,11,02,19.30
2008,05,18,11,03,19.30
2008,05,18,11,04,19.30
2008,05,18,11,05,19.40
2008,05,18,11,06,19.40
2008,05,18,11,07,19.50
2008,05,18,11,08,19.60
2008,05,18,11,09,19.60
2008,05,18,11,10,19.70
2008,05,18,11,11,19.70
2008,05,18,11,12,19.70
2008,05,18,11,13,19.80
2008,05,18,11,14,19.90
2008,05,18,11,15,20.00
2008,05,18,11,16,20.10
2008,05,18,11,17,20.20
2008,05,18,11,18,20.20
2008,05,18,11,19,20.20
2008,05,18,11,20,20.20
2008,05,18,11,21,20.30
2008,05,18,11,22,20.30
2008,05,18,11,23,20.40
2008,05,18,11,24,20.40
2008,05,18,11,25,20.50
2008,05,18,11,26,20.50
2008,05,18,11,27,20.50
2008,05,18,11,28,20.50
2008,05,18,11,29,20.50
2008,05,18,11,30,20.50
2008,05,18,11,31,20.60
2008,05,18,11,32,20.60
2008,05,18,11,33,20.70
2008,05,18,11,34,20.70
2008,05,18,11,35,20.70
2008,05,18,11,36,20.60
2008,05,18,11,37,20.50
2008,05,18,11,38,20.40
2008,05,18,11,39,20.40
2008,05,18,11,40,20.30
2008,05,18,11,41,20.30
2008,05,18,11,42,20.30
2008,05,18,11,43,20.30
2008,05,18,11,44,20.30
2008,05,18,11,45,20.30
2008,05,18,11,46,20.30
2008,05,18,11,47,20.30
2008,05,18,11,48,20.40
2008,05,18,11,49,20.40
2008,05,18,11,50,20.40
2008,05,18,11,51,20.40
2008,05,18,11,52,20.40
2008,05,18,11,53,20.40
2008,05,18,11,54,20.50
2008,05,18,11,55,20.50
2008,05,18,11,56,20.50
2008,05,18,11,57,20.50
2008,05,18,11,58,20.60
2008,05,18,11,59,20.70
2008,05,18,12,00,20.70
2008,05,18,12,01,20.70
2008,05,18,12,02,20.70
2008,05,18,12,03,20.70
2008,05,18,12,04,20.70
2008,05,18,12,05,20.60
2008,05,18,12,06,20.70
2008,05,18,12,07,20.60
2008,05,18,12,08,20.70
2008,05,18,12,09,20.80
2008,05,18,12,10,20.90
2008,05,18,12,11,21.00
2008,05,18,12,12,21.00
2008,05,18,12,13,21.10
2008,05,18,12,14,21.20
2008,05,18,12,15,21.20
2008,05,18,12,16,21.20
2008,05,18,12,17,21.20
2008,05,18,12,18,21.20
2008,05,18,12,19,21.30
2008,05,18,12,20,21.30
2008,05,18,12,21,21.40
2008,05,18,12,22,21.50
2008,05,18,12,23,21.60
2008,05,18,12,24,21.70
2008,05,18,12,25,21.80
2008,05,18,12,26,21.90
2008,05,18,12,27,21.90
2008,05,18,12,28,22.00
2008,05,18,12,29,22.00
2008,05,18,12,30,22.10
2008,05,18,12,31,22.20
2008,05,18,12,32,22.20
2008,05,18,12,33,22.30
2008,05,18,12,34,22.50
2008,05,18,12,35,22.60
2008,05,18,12,36,22.60
2008,05,18,12,37,22.50
2008,05,18,12,38,22.60
2008,05,18,12,39,22.60
2008,05,18,12,40,22.60
2008,05,18,12,41,22.70
2008,05,18,12,42,22.60
2008,05,18,12,43,22.50
2008,05,18,12,44,22.50
2008,05,18,12,45,22.50
2008,05,18,12,46,22.60
2008,05,18,12,47,22.50
2008,05,18,12,48,22.60
2008,05,18,12,49,22.60
2008,05,18,12,50,22.60
2008,05,18,12,51,22.60
2008,05,18,12,52,22.70
2008,05,18,12,53,22.70
2008,05,18,12,54,22.80
2008,05,18,12,55,22.90
2008,05,18,12,56,22.90
2008,05,18,12,57,22.90
2008,05,18,12,58,22.80
2008,05,18,12,59,22.70
2008,05,18,13,00,22.80
2008,05,18,13,01,22.90
2008,05,18,13,02,22.90
2008,05,18,13,03,22.90
2008,05,18,13,04,22.90
2008,05,18,13,05,22.80
2008,05,18,13,06,22.70
2008,05,18,13,07,22.60
2008,05,18,13,08,22.60
2008,05,18,13,09,22.60
2008,05,18,13,10,22.60
2008,05,18,13,11,22.70
2008,05,18,13,12,22.70
2008,05,18,13,13,22.80
2008,05,18,13,14,22.90
2008,05,18,13,15,22.90
2008,05,18,13,16,22.90
2008,05,18,13,17,23.00
2008,05,18,13,18,23.00
2008,05,18,13,19,22.90
2008,05,18,13,20,22.90
2008,05,18,13,21,22.90
2008,05,18,13,22,22.90
2008,05,18,13,23,22.90
2008,05,18,13,24,23.00
2008,05,18,13,25,23.10
2008,05,18,13,26,23.10
2008,05,18,13,27,23.10
2008,05,18,13,28,23.20
2008,05,18,13,29,23.30
2008,05,18,13,30,23.30
2008,05,18,13,31,23.40
2008,05,18,13,32,23.40
2008,05,18,13,33,23.40
2008,05,18,13,34,23.50
2008,05,18,13,35,23.60
2008,05,18,13,36,23.70
2008,05,18,13,37,23.80
2008,05,18,13,38,23.90
2008,05,18,13,39,24.00
2008,05,18,13,40,24.10
2008,05,18,13,41,24.10
2008,05,18,13,42,24.30
2008,05,18,13,43,24.40
2008,05,18,13,44,24.40
2008,05,18,13,45,24.40
2008,05,18,13,46,24.30
2008,05,18,13,47,24.20
2008,05,18,13,48,24.00
2008,05,18,13,49,23.80
2008,05,18,13,50,23.70
2008,05,18,13,51,23.70
2008,05,18,13,52,23.70
2008,05,18,13,53,23.70
2008,05,18,13,54,23.60
2008,05,18,13,55,23.70
2008,05,18,13,56,23.70
2008,05,18,13,57,23.80
2008,05,18,13,58,23.80
2008,05,18,13,59,23.80
2008,05,18,14,00,23.70
2008,05,18,14,01,23.70
2008,05,18,14,02,23.60
2008,05,18,14,03,23.50
2008,05,18,14,04,23.40
2008,05,18,14,05,23.40
2008,05,18,14,06,23.40
2008,05,18,14,07,23.50
2008,05,18,14,08,23.60
2008,05,18,14,09,23.70
2008,05,18,14,10,23.80
2008,05,18,14,11,24.00
2008,05,18,14,12,24.10
2008,05,18,14,13,24.20
2008,05,18,14,14,24.30
2008,05,18,14,15,24.40
2008,05,18,14,16,24.50
2008,05,18,14,17,24.60
2008,05,18,14,18,24.70
2008,05,18,14,19,24.80
2008,05,18,14,20,24.90
2008,05,18,14,21,25.00
2008,05,18,14,22,25.10
2008,05,18,14,23,25.20
2008,05,18,14,24,25.30
2008,05,18,14,25,25.40
2008,05,18,14,26,25.50
2008,05,18,14,27,25.50
2008,05,18,14,28,25.40
2008,05,18,14,29,25.20
2008,05,18,14,30,24.90
2008,05,18,14,31,24.70
2008,05,18,14,32,24.50
2008,05,18,14,33,24.40
2008,05,18,14,34,24.30
2008,05,18,14,35,24.10
2008,05,18,14,36,23.90
2008,05,18,14,37,23.80
2008,05,18,14,38,23.70
2008,05,18,14,39,23.50
2008,05,18,14,40,23.40
2008,05,18,14,41,23.40
2008,05,18,14,42,23.40
2008,05,18,14,43,23.20
2008,05,18,14,44,23.20
2008,05,18,14,45,23.10
2008,05,18,14,46,23.10
2008,05,18,14,47,23.10
2008,05,18,14,48,23.10
2008,05,18,14,49,23.10
2008,05,18,14,50,23.10
2008,05,18,14,51,23.10
2008,05,18,14,52,23.10
2008,05,18,14,53,23.00
2008,05,18,14,54,23.00
2008,05,18,14,55,22.90
2008,05,18,14,56,22.90
2008,05,18,14,57,22.90
2008,05,18,14,58,22.90
2008,05,18,14,59,22.90
2008,05,18,15,00,22.80
2008,05,18,15,01,22.80
2008,05,18,15,02,22.80
2008,05,18,15,03,22.70
2008,05,18,15,04,22.70
2008,05,18,15,05,22.70
2008,05,18,15,06,22.70
2008,05,18,15,07,22.60
2008,05,18,15,08,22.50
2008,05,18,15,09,22.40
2008,05,18,15,10,22.30
2008,05,18,15,11,22.30
2008,05,18,15,12,22.10
2008,05,18,15,13,22.10
2008,05,18,15,14,22.00
2008,05,18,15,15,22.00
2008,05,18,15,16,22.00
2008,05,18,15,17,22.10
2008,05,18,15,18,22.20
2008,05,18,15,19,22.10
2008,05,18,15,20,22.10
2008,05,18,15,21,22.10
2008,05,18,15,22,22.00
2008,05,18,15,23,22.00
2008,05,18,15,24,21.90
2008,05,18,15,25,21.90
2008,05,18,15,26,21.90
2008,05,18,15,27,21.90
2008,05,18,15,28,21.90
2008,05,18,15,29,21.90
2008,05,18,15,30,21.90
2008,05,18,15,31,21.80
2008,05,18,15,32,21.70
2008,05,18,15,33,21.70
2008,05,18,15,34,21.70
2008,05,18,15,35,21.60
2008,05,18,15,36,21.60
2008,05,18,15,37,21.50
2008,05,18,15,38,21.50
2008,05,18,15,39,21.40
2008,05,18,15,40,21.40
2008,05,18,15,41,21.40
2008,05,18,15,42,21.40
2008,05,18,15,43,21.40
2008,05,18,15,44,21.40
2008,05,18,15,45,21.50
2008,05,18,15,46,21.50
2008,05,18,15,47,21.60
2008,05,18,15,48,21.50
2008,05,18,15,49,21.50
2008,05,18,15,50,21.40
2008,05,18,15,51,21.40
2008,05,18,15,52,21.50
2008,05,18,15,53,21.50
2008,05,18,15,54,21.50
2008,05,18,15,55,21.40
2008,05,18,15,56,21.40
2008,05,18,15,57,21.40
2008,05,18,15,58,21.40
2008,05,18,15,59,21.40
2008,05,18,16,00,21.40
2008,05,18,16,01,21.40
2008,05,18,16,02,21.40
2008,05,18,16,03,21.50
2008,05,18,16,04,21.50
2008,05,18,16,05,21.60
2008,05,18,16,06,21.60
2008,05,18,16,07,21.60
2008,05,18,16,08,21.60
2008,05,18,16,09,21.60
2008,05,18,16,10,21.60
2008,05,18,16,11,21.60
2008,05,18,16,12,21.70
2008,05,18,16,13,21.70
2008,05,18,16,14,21.70
2008,05,18,16,15,21.70
2008,05,18,16,16,21.80
2008,05,18,16,17,21.80
2008,05,18,16,18,21.80
2008,05,18,16,19,21.80
2008,05,18,16,20,21.80
2008,05,18,16,21,21.90
2008,05,18,16,22,21.90
2008,05,18,16,23,22.00
2008,05,18,16,24,22.00
2008,05,18,16,25,22.10
2008,05,18,16,26,22.10
2008,05,18,16,27,22.10
2008,05,18,16,28,22.10
2008,05,18,16,29,22.10
2008,05,18,16,30,22.10
2008,05,18,16,31,22.00
2008,05,18,16,32,21.90
2008,05,18,16,33,21.90
2008,05,18,16,34,21.90
2008,05,18,16,35,21.90
2008,05,18,16,36,21.90
2008,05,18,16,37,21.90
2008,05,18,16,38,21.80
2008,05,18,16,39,21.80
2008,05,18,16,40,21.70
2008,05,18,16,41,21.70
2008,05,18,16,42,21.70
2008,05,18,16,43,21.70
2008,05,18,16,44,21.70
2008,05,18,16,45,21.70
2008,05,18,16,46,21.70
2008,05,18,16,47,21.70
2008,05,18,16,48,21.70
2008,05,18,16,49,21.60
2008,05,18,16,50,21.60
2008,05,18,16,51,21.60
2008,05,18,16,52,21.60
2008,05,18,16,53,21.60
2008,05,18,16,54,21.60
2008,05,18,16,55,21.60
2008,05,18,16,56,21.60
2008,05,18,16,57,21.60
2008,05,18,16,58,21.60
2008,05,18,16,59,21.60
2008,05,18,17,00,21.60
2008,05,18,17,01,21.60
2008,05,18,17,02,21.60
2008,05,18,17,03,21.60
2008,05,18,17,04,21.70
2008,05,18,17,05,21.70
2008,05,18,17,06,21.80
2008,05,18,17,07,21.80
2008,05,18,17,08,21.80
2008,05,18,17,09,21.80
2008,05,18,17,10,21.80
2008,05,18,17,11,21.80
2008,05,18,17,12,21.80
2008,05,18,17,13,21.80
2008,05,18,17,14,21.80
2008,05,18,17,15,21.80
2008,05,18,17,16,21.80
2008,05,18,17,17,21.90
2008,05,18,17,18,21.90
2008,05,18,17,19,21.90